User: anonymous   Login
Location: Unspecified
(0.0000°N, 0.0000°E)
Time: 11:50:04
(UTC+00:00)
Language:

nSIGHT-1 - Orbit

View from above orbital plane
View from above orbital plane
View from above satellite
View from above satellite

Ground track
Ground track

The orbit data is extracted from the following two-line orbital elements,

1 42726U 98067MF  18169.08158031  .00004966  00000-0  62813-4 0  9991
2 42726  51.6395   2.7988 0004839 229.5418 130.5154 15.61525253 60540
Epoch (UTC): 18 June 2018 01:57:28
Eccentricity: 0.0004839
inclination: 51.6395°
perigee height: 380 km
apogee height: 386 km
right ascension of ascending node: 2.7988°
argument of perigee: 229.5418°
revolutions per day: 15.61525253
mean anomaly at epoch: 130.5154°
orbit number at epoch: 6054

The dashed part of the orbit path shows where the satellite is in the earth's shadow,  

DLR